Glasston, ND (58236)

8:02 AM CDT on March 29, 2015 (GMT -0500)
Cavalier | | Change Station
CLOSE
Current Station
Airport
Location: Cavalier,
Elevation: 892 ft
Nearby Weather Stations
Active Advisory: Wind Advisory

Elev 892 ft 48.78 °N, 97.63 °W | Updated 27 minutes ago

Overcast
Overcast
37 °F
Feels Like 25 °F
N
28
Wind Variable Wind from NNW
Gusts 36 mph

Today
High -- | Low -- °F
--% Chance of Precip.
Yesterday
High -- | Low -- °F
Precip. -- in
7:14 AM 7:55 PM
Waxing Gibbous, 71% visible
Pressure 29.69 in
Visibility -9999.0 miles
Clouds Overcast 1400 ft
Windchill 25 °F
Dew Point 32 °F
Humidity 81%
Rainfall 0.00 in
Snow Depth Not available.
UV 0 out of 12
Pollen 1.10 out of 12
Air Quality Not available.
Flu Activity Not available.
METAR K2C8 291235Z AUTO 33024G31KT OVC014 03/00 A2969 RMK AO2

More Conditions Fewer Conditions

Pressure 29.69 in
Visibility -9999.0 miles
Clouds Overcast 1400 ft
Windchill 25 °F
Dew Point 32 °F
Humidity 81%
Rainfall 0.00 in
Snow Depth Not available.
UV 0 out of 12
Pollen 1.10 out of 12
Air Quality Not available.
Flu Activity Not available.
METAR K2C8 291235Z AUTO 33024G31KT OVC014 03/00 A2969 RMK AO2

More Conditions Fewer Conditions

10-Day Weather Forecast

Almanac

Astronomy

Mar. 29, 2015 Rise Set
Actual Time
Civil Twilight
Nautical Twilight
Astronomical Twilight
Moon
Length of Visible Light
Length of Day
Tomorrow will be .
, % of the Moon is Illuminated

Today's Extremes

State Highs State Lows

Community

WunderPhotos

Upload Photos

1,809,232 photos uploaded!

WunderBlogs® & News

Nearby

Air Quality

  Air Quality AQ Index Pollutant
Not available.

Snow Depth

Station Depth Elevation

Earthquake Activity

City Distance Mag. Time & Date
Minimum magnitude displayed is 2.5.

Coastal Water Temperatures

Place Temperature

Stations

Nearby Weather Stations

Station Location Temp. Windchill Dew Point Humidity Wind Precip. Elev Updated Type
                   
Wind Advisory
Statement as of 4:14 AM CDT on March 29, 2015

... Wind Advisory remains in effect until 7 PM CDT this evening...

* timing... towards sunrise in the Devils Lake region spreading
east during the morning.

* Winds... northwest 25 to 35 mph with higher gusts.

* Impacts... waves of 4 to 6 feet may be generated in the Devils
Lake basin and result in roadbed erosion in susceptible areas.

Precautionary/preparedness actions...

A Wind Advisory means that sustained winds of 30 mph or frequent
gusts to 45 mph are expected. Winds this strong can make driving
difficult... especially for high profile vehicles. Use extra
caution.